| time (UTC) | temp C | wind direction | speed KPH | gust KPH | rain 1hr cm | rain 24hr cm | rain mn cm | humidity % | barometer mb |
| 20260508142240 | 16 | 190 | 6.4 | 14.5 | 0.00 | 0.00 | 0.00 | 50 | 1016.5 |
| 20260508141056 | 15 | 207 | 6.4 | 17.7 | 0.00 | 0.00 | 0.00 | 50 | 1016.5 |
| 20260508140059 | 15 | 219 | 8.0 | 17.7 | 0.00 | 0.00 | 0.00 | 50 | 1016.5 |
| 20260508135055 | 15 | 209 | 6.4 | 14.5 | 0.00 | 0.00 | 0.00 | 51 | 1016.4 |
| 20260508134119 | 15 | 225 | 6.4 | 17.7 | 0.00 | 0.00 | 0.00 | 51 | 1016.4 |
| 20260508133035 | 15 | 197 | 4.8 | 12.9 | 0.00 | 0.00 | 0.00 | 51 | 1016.3 |
| 20260508132100 | 15 | 193 | 6.4 | 16.1 | 0.00 | 0.00 | 0.00 | 50 | 1016.3 |
| 20260508131035 | 15 | 180 | 6.4 | 12.9 | 0.00 | 0.00 | 0.00 | 49 | 1016.2 |
| 20260508130100 | 16 | 188 | 6.4 | 14.5 | 0.00 | 0.00 | 0.00 | 49 | 1016.1 |
| 20260508125056 | 16 | 211 | 8.0 | 17.7 | 0.00 | 0.00 | 0.00 | 49 | 1016.0 |
| 20260508124220 | 16 | 221 | 9.7 | 19.3 | 0.00 | 0.00 | 0.00 | 49 | 1016.0 |
| 20260508123036 | 16 | 279 | 9.7 | 17.7 | 0.00 | 0.00 | 0.00 | 50 | 1015.9 |
| 20260508122059 | 15 | 208 | 9.7 | 22.5 | 0.00 | 0.00 | 0.00 | 50 | 1016.0 |
| 20260508121036 | 15 | 157 | 9.7 | 17.7 | 0.00 | 0.00 | 0.00 | 51 | 1015.9 |
| 20260508120120 | 15 | 164 | 8.0 | 17.7 | 0.00 | 0.00 | 0.00 | 51 | 1015.9 |
| 20260508115035 | 15 | 228 | 8.0 | 12.9 | 0.00 | 0.00 | 0.00 | 53 | 1015.8 |
| 20260508114059 | 15 | 207 | 8.0 | 14.5 | 0.00 | 0.00 | 0.00 | 53 | 1015.8 |
| 20260508113036 | 14 | 230 | 9.7 | 17.7 | 0.00 | 0.00 | 0.00 | 54 | 1015.7 |
| 20260508112120 | 13 | 219 | 8.0 | 17.7 | 0.00 | 0.00 | 0.00 | 55 | 1015.7 |
| 20260508111035 | 13 | 200 | 6.4 | 17.7 | 0.00 | 0.00 | 0.00 | 55 | 1015.7 |
| 20260508110100 | 13 | 184 | 9.7 | 16.1 | 0.00 | 0.00 | 0.00 | 56 | 1015.7 |
| 20260508105056 | 14 | 179 | 9.7 | 17.7 | 0.00 | 0.00 | 0.00 | 57 | 1015.7 |
| 20260508104100 | 13 | 188 | 4.8 | 11.3 | 0.00 | 0.00 | 0.00 | 59 | 1015.7 |
| 20260508103036 | 14 | 163 | 6.4 | 12.9 | 0.00 | 0.00 | 0.00 | 58 | 1015.6 |
| 20260508102120 | 13 | 229 | 6.4 | 16.1 | 0.00 | 0.00 | 0.00 | 59 | 1015.6 |
| 20260508101036 | 13 | 198 | 6.4 | 12.9 | 0.00 | 0.00 | 0.00 | 59 | 1015.5 |
| 20260508100100 | 13 | 208 | 6.4 | 17.7 | 0.00 | 0.00 | 0.00 | 59 | 1015.4 |
| 20260508095036 | 13 | 198 | 6.4 | 12.9 | 0.00 | 0.00 | 0.00 | 60 | 1015.3 |
| 20260508094059 | 12 | 165 | 6.4 | 12.9 | 0.00 | 0.00 | 0.00 | 61 | 1015.3 |
| 20260508093036 | 12 | 221 | 6.4 | 14.5 | 0.00 | 0.00 | 0.00 | 61 | 1015.3 |
| 20260508092240 | 12 | 205 | 6.4 | 17.7 | 0.00 | 0.00 | 0.00 | 62 | 1015.3 |
| 20260508091035 | 12 | 185 | 6.4 | 12.9 | 0.00 | 0.00 | 0.00 | 65 | 1015.2 |
| 20260508090120 | 12 | 175 | 4.8 | 11.3 | 0.00 | 0.00 | 0.00 | 64 | 1015.2 |
| 20260508085036 | 12 | 253 | 4.8 | 9.7 | 0.00 | 0.00 | 0.00 | 65 | 1015.1 |
| 20260508084120 | 12 | 219 | 8.0 | 12.9 | 0.00 | 0.00 | 0.00 | 70 | 1015.0 |
| 20260508083036 | 11 | 205 | 8.0 | 14.5 | 0.00 | 0.00 | 0.00 | 71 | 1015.0 |
| 20260508082140 | 11 | 223 | 6.4 | 12.9 | 0.00 | 0.00 | 0.00 | 72 | 1014.9 |
| 20260508081116 | 11 | 213 | 4.8 | 12.9 | 0.00 | 0.00 | 0.00 | 73 | 1014.7 |
| 20260508080200 | 11 | 221 | 4.8 | 12.9 | 0.00 | 0.00 | 0.00 | 73 | 1014.6 |
| 20260508075036 | 11 | 215 | 6.4 | 12.9 | 0.00 | 0.00 | 0.00 | 75 | 1014.6 |
| 20260508074100 | 11 | 192 | 4.8 | 8.0 | 0.00 | 0.00 | 0.00 | 75 | 1014.4 |
| 20260508073056 | 11 | 187 | 4.8 | 14.5 | 0.00 | 0.00 | 0.00 | 75 | 1014.3 |
| 20260508072120 | 11 | 180 | 3.2 | 8.0 | 0.00 | 0.00 | 0.00 | 75 | 1014.1 |
| 20260508071036 | 11 | 179 | 6.4 | 11.3 | 0.00 | 0.00 | 0.00 | 75 | 1014.1 |
| 20260508070200 | 11 | 214 | 6.4 | 11.3 | 0.00 | 0.00 | 0.00 | 75 | 1014.0 |
| 20260508065116 | 11 | 206 | 4.8 | 11.3 | 0.00 | 0.00 | 0.00 | 76 | 1013.9 |
| 20260508064140 | 11 | 199 | 4.8 | 8.0 | 0.00 | 0.00 | 0.00 | 77 | 1013.8 |
| 20260508063116 | 11 | 185 | 4.8 | 8.0 | 0.00 | 0.00 | 0.00 | 78 | 1013.7 |
| 20260508062100 | 11 | 162 | 4.8 | 8.0 | 0.00 | 0.00 | 0.00 | 79 | 1013.6 |
| 20260508061056 | 10 | 185 | 4.8 | 11.3 | 0.00 | 0.00 | 0.00 | 79 | 1013.5 |
| 20260508060100 | 10 | 213 | 3.2 | 6.4 | 0.00 | 0.00 | 0.00 | 79 | 1013.3 |
| 20260508055116 | 10 | 213 | 1.6 | 6.4 | 0.00 | 0.00 | 0.00 | 79 | 1013.2 |
| 20260508054100 | 10 | 203 | 1.6 | 6.4 | 0.00 | 0.00 | 0.00 | 79 | 1013.1 |
| 20260508053036 | 10 | 204 | 3.2 | 8.0 | 0.00 | 0.00 | 0.00 | 79 | 1013.0 |
| 20260508052140 | 9 | 207 | 1.6 | 4.8 | 0.00 | 0.00 | 0.00 | 79 | 1012.9 |
| 20260508051056 | 9 | 262 | 0.0 | 4.8 | 0.00 | 0.00 | 0.00 | 79 | 1012.9 |
| 20260508050120 | 9 | 270 | 0.0 | 3.2 | 0.00 | 0.00 | 0.00 | 78 | 1012.8 |
| 20260508045116 | 9 | 145 | 1.6 | 3.2 | 0.00 | 0.00 | 0.00 | 77 | 1012.8 |
| 20260508044120 | 9 | 203 | 0.0 | 3.2 | 0.00 | 0.00 | 0.00 | 77 | 1012.7 |
| 20260508043036 | 9 | 0.0 | 3.2 | 0.00 | 0.00 | 0.00 | 76 | 1012.6 | |
| 20260508042100 | 9 | 0.0 | 1.6 | 0.00 | 0.00 | 0.00 | 76 | 1012.5 | |
| 20260508041036 | 9 | 205 | 0.0 | 3.2 | 0.00 | 0.00 | 0.00 | 76 | 1012.4 |
| 20260508040100 | 9 | 227 | 0.0 | 3.2 | 0.00 | 0.00 | 0.00 | 75 | 1012.3 |
| 20260508035056 | 9 | 179 | 1.6 | 6.4 | 0.00 | 0.00 | 0.00 | 75 | 1012.4 |
| 20260508034100 | 9 | 204 | 0.0 | 3.2 | 0.00 | 0.00 | 0.00 | 75 | 1012.3 |
| 20260508033136 | 9 | 231 | 1.6 | 3.2 | 0.00 | 0.00 | 0.00 | 74 | 1012.4 |
| 20260508032140 | 9 | 173 | 1.6 | 4.8 | 0.00 | 0.00 | 0.00 | 74 | 1012.4 |
| 20260508031217 | 9 | 178 | 3.2 | 6.4 | 0.00 | 0.00 | 0.00 | 74 | 1012.4 |
| 20260508030120 | 9 | 236 | 1.6 | 6.4 | 0.00 | 0.00 | 0.00 | 74 | 1012.3 |
| 20260508025036 | 9 | 223 | 3.2 | 9.7 | 0.00 | 0.00 | 0.00 | 74 | 1012.3 |
| 20260508024100 | 9 | 231 | 1.6 | 6.4 | 0.00 | 0.00 | 0.00 | 73 | 1012.3 |
| 20260508023116 | 9 | 194 | 1.6 | 4.8 | 0.00 | 0.00 | 0.00 | 73 | 1012.2 |
| 20260508022100 | 9 | 228 | 1.6 | 3.2 | 0.00 | 0.00 | 0.00 | 73 | 1012.2 |
| 20260508021036 | 9 | 49 | 0.0 | 3.2 | 0.00 | 0.00 | 0.00 | 73 | 1012.2 |
| 20260508020100 | 9 | 208 | 1.6 | 3.2 | 0.00 | 0.00 | 0.00 | 74 | 1012.2 |
| 20260508015036 | 9 | 222 | 0.0 | 3.2 | 0.00 | 0.00 | 0.00 | 74 | 1012.3 |
| 20260508014120 | 8 | 212 | 1.6 | 6.4 | 0.00 | 0.00 | 0.00 | 75 | 1012.2 |
| 20260508013037 | 8 | 174 | 1.6 | 4.8 | 0.00 | 0.00 | 0.00 | 77 | 1012.2 |
| 20260508012120 | 8 | 187 | 1.6 | 4.8 | 0.00 | 0.00 | 0.00 | 78 | 1012.2 |
| 20260508011056 | 8 | 197 | 1.6 | 8.0 | 0.00 | 0.00 | 0.00 | 78 | 1012.2 |
| 20260508010100 | 8 | 197 | 0.0 | 3.2 | 0.00 | 0.00 | 0.00 | 78 | 1012.2 |
| 20260508005036 | 7 | 0.0 | 1.6 | 0.00 | 0.00 | 0.00 | 77 | 1012.2 | |
| 20260508004100 | 7 | 236 | 0.0 | 3.2 | 0.00 | 0.00 | 0.00 | 76 | 1012.2 |
| 20260508003056 | 8 | 212 | 0.0 | 3.2 | 0.00 | 0.00 | 0.00 | 76 | 1012.2 |
| 20260508002120 | 8 | 225 | 0.0 | 3.2 | 0.00 | 0.00 | 0.00 | 76 | 1012.3 |
| 20260508001056 | 8 | 0.0 | 1.6 | 0.00 | 0.00 | 0.00 | 75 | 1012.3 | |
| 20260508000100 | 8 | 315 | 0.0 | 1.6 | 0.00 | 0.00 | 0.00 | 75 | 1012.3 |
| 20260507235137 | 8 | 0.0 | 1.6 | 0.00 | 0.00 | 0.00 | 74 | 1012.3 | |
| 20260507234100 | 8 | 0.0 | 1.6 | 0.00 | 0.00 | 0.00 | 73 | 1012.3 | |
| 20260507233056 | 8 | 225 | 0.0 | 3.2 | 0.00 | 0.00 | 0.00 | 73 | 1012.2 |
| 20260507232101 | 8 | 290 | 0.0 | 3.2 | 0.00 | 0.00 | 0.00 | 72 | 1012.2 |
| 20260507231056 | 8 | 210 | 0.0 | 3.2 | 0.00 | 0.00 | 0.00 | 72 | 1012.2 |
| 20260507230100 | 8 | 144 | 0.0 | 3.2 | 0.00 | 0.00 | 0.00 | 71 | 1012.2 |
| 20260507225057 | 9 | 191 | 0.0 | 3.2 | 0.00 | 0.00 | 0.00 | 71 | 1012.2 |
| 20260507224121 | 9 | 0 | 0.0 | 3.2 | 0.00 | 0.00 | 0.00 | 71 | 1012.2 |
| 20260507223056 | 9 | 136 | 0.0 | 3.2 | 0.00 | 0.00 | 0.00 | 71 | 1012.2 |
| 20260507222100 | 10 | 321 | 1.6 | 4.8 | 0.00 | 0.00 | 0.00 | 70 | 1012.2 |
| 20260507221057 | 10 | 166 | 0.0 | 3.2 | 0.00 | 0.00 | 0.00 | 70 | 1012.2 |
| 20260507220100 | 10 | 248 | 1.6 | 3.2 | 0.00 | 0.00 | 0.00 | 70 | 1012.1 |
| 20260507215056 | 10 | 242 | 1.6 | 8.0 | 0.00 | 0.00 | 0.00 | 70 | 1012.1 |
| 20260507214200 | 10 | 108 | 1.6 | 8.0 | 0.00 | 0.00 | 0.00 | 69 | 1012.2 |
| 20260507213036 | 11 | 214 | 1.6 | 8.0 | 0.00 | 0.00 | 0.00 | 69 | 1012.2 |
| 20260507212201 | 11 | 199 | 3.2 | 8.0 | 0.00 | 0.00 | 0.00 | 69 | 1012.2 |
| 20260507211136 | 11 | 187 | 1.6 | 8.0 | 0.00 | 0.00 | 0.00 | 67 | 1012.1 |
| 20260507210120 | 11 | 206 | 1.6 | 6.4 | 0.00 | 0.00 | 0.00 | 66 | 1012.1 |
| 20260507205037 | 11 | 176 | 6.4 | 17.7 | 0.00 | 0.00 | 0.00 | 66 | 1012.0 |
| 20260507204101 | 11 | 213 | 4.8 | 11.3 | 0.00 | 0.00 | 0.00 | 65 | 1012.0 |
| 20260507203056 | 11 | 168 | 4.8 | 12.9 | 0.00 | 0.00 | 0.00 | 65 | 1012.0 |
| 20260507202201 | 12 | 195 | 4.8 | 12.9 | 0.00 | 0.00 | 0.00 | 65 | 1011.8 |
| 20260507201117 | 12 | 187 | 6.4 | 16.1 | 0.00 | 0.00 | 0.00 | 65 | 1011.7 |
| 20260507200120 | 12 | 226 | 6.4 | 14.5 | 0.00 | 0.00 | 0.00 | 64 | 1011.6 |
| 20260507195037 | 12 | 194 | 6.4 | 12.9 | 0.00 | 0.00 | 0.00 | 64 | 1011.5 |
| 20260507194100 | 12 | 197 | 6.4 | 14.5 | 0.00 | 0.00 | 0.00 | 64 | 1011.5 |
| 20260507193056 | 12 | 170 | 6.4 | 14.5 | 0.00 | 0.00 | 0.00 | 63 | 1011.3 |
| 20260507192121 | 12 | 187 | 6.4 | 12.9 | 0.00 | 0.00 | 0.00 | 60 | 1011.3 |
| 20260507191036 | 12 | 197 | 8.0 | 17.7 | 0.00 | 0.00 | 0.00 | 59 | 1011.3 |
| 20260507190101 | 12 | 217 | 6.4 | 17.7 | 0.00 | 0.00 | 0.00 | 59 | 1011.3 |
| 20260507185037 | 12 | 179 | 6.4 | 17.7 | 0.00 | 0.00 | 0.00 | 59 | 1011.3 |
| 20260507184141 | 12 | 194 | 6.4 | 12.9 | 0.00 | 0.00 | 0.00 | 59 | 1011.3 |
| 20260507183037 | 12 | 234 | 4.8 | 12.9 | 0.00 | 0.00 | 0.00 | 59 | 1011.3 |
| 20260507182241 | 12 | 197 | 6.4 | 14.5 | 0.00 | 0.00 | 0.00 | 59 | 1011.2 |
| 20260507181117 | 12 | 206 | 4.8 | 9.7 | 0.00 | 0.00 | 0.00 | 59 | 1011.2 |
| 20260507180100 | 12 | 219 | 3.2 | 8.0 | 0.00 | 0.00 | 0.00 | 60 | 1011.2 |
| 20260507175037 | 12 | 168 | 3.2 | 12.9 | 0.00 | 0.00 | 0.00 | 61 | 1011.2 |
| 20260507174140 | 13 | 221 | 1.6 | 3.2 | 0.00 | 0.00 | 0.00 | 60 | 1011.2 |
| 20260507173037 | 13 | 191 | 3.2 | 8.0 | 0.00 | 0.00 | 0.00 | 60 | 1011.3 |
| 20260507172101 | 13 | 245 | 3.2 | 11.3 | 0.00 | 0.00 | 0.00 | 62 | 1011.2 |
| 20260507171056 | 12 | 211 | 3.2 | 6.4 | 0.00 | 0.00 | 0.00 | 62 | 1011.3 |
| 20260507170101 | 12 | 238 | 1.6 | 6.4 | 0.00 | 0.00 | 0.00 | 62 | 1011.3 |
| 20260507165057 | 12 | 193 | 3.2 | 8.0 | 0.00 | 0.00 | 0.00 | 66 | 1011.4 |
| 20260507164101 | 12 | 244 | 1.6 | 6.4 | 0.00 | 0.00 | 0.00 | 67 | 1011.4 |
| 20260507163117 | 12 | 212 | 3.2 | 8.0 | 0.00 | 0.00 | 0.00 | 67 | 1011.6 |
| 20260507162121 | 12 | 221 | 6.4 | 11.3 | 0.00 | 0.00 | 0.00 | 66 | 1011.6 |
| 20260507161037 | 12 | 214 | 4.8 | 11.3 | 0.00 | 0.00 | 0.00 | 65 | 1011.7 |
| 20260507160101 | 12 | 185 | 6.4 | 12.9 | 0.00 | 0.00 | 0.00 | 64 | 1011.7 |
| 20260507155057 | 12 | 224 | 6.4 | 12.9 | 0.00 | 0.00 | 0.00 | 60 | 1011.7 |
| 20260507154101 | 13 | 232 | 11.3 | 25.7 | 0.00 | 0.00 | 0.00 | 56 | 1011.8 |
| 20260507153037 | 13 | 189 | 8.0 | 22.5 | 0.00 | 0.00 | 0.00 | 55 | 1011.5 |
| 20260507152201 | 13 | 182 | 8.0 | 17.7 | 0.00 | 0.00 | 0.00 | 56 | 1011.5 |
| 20260507151036 | 13 | 210 | 8.0 | 16.1 | 0.00 | 0.00 | 0.00 | 57 | 1011.6 |
| 20260507150101 | 13 | 246 | 8.0 | 17.7 | 0.00 | 0.00 | 0.00 | 57 | 1011.7 |
| 20260507145057 | 13 | 201 | 8.0 | 17.7 | 0.00 | 0.00 | 0.00 | 57 | 1011.7 |
| 20260507144141 | 13 | 234 | 9.7 | 22.5 | 0.00 | 0.00 | 0.00 | 57 | 1011.8 |